Location: Unspecified
(42.9300°N, 71.1866°W)
Time: 09:25:25
(UTC-05:00)

CZ-3 Stage 3 - Visible Passes

Search period start: 26 January 2015 00:00
Search period end: 05 February 2015 00:00
Orbit: 436 x 34794 km, 31.1° (Epoch: 25 January)

Date Brightness Start Highest point End Pass type
(mag) Time Alt. Az. Time Alt. Az. Time Alt. Az.
26 Jan 7.7 13:26:55 10° SSE 21:50:10 73° S 22:05:09 69° SSE visible
28 Jan 8.1 17:03:31 10° SW 01:28:42 35° W 01:28:42 35° W visible
29 Jan 7.6 13:20:32 10° S 21:46:25 73° S 22:02:16 68° SSE visible
31 Jan 8.0 16:58:39 10° SW 01:25:43 34° W 01:25:43 34° W visible
01 Feb 7.5 13:14:17 10° S 21:42:34 72° S 21:59:14 66° SSE visible
03 Feb 8.0 16:53:49 10° SW 01:22:35 33° W 01:22:35 33° W visible
04 Feb 7.5 13:08:10 10° S 21:38:38 72° S 21:56:04 65° SSE visible
